Amargosa Valley, NV

4:59 AM PST on February 19, 2017 (GMT -0800)
Mercury

Weather History for KDRA - December, 2012

Change the Weather History Date:

Monday, December 3, 2012

  Actual Average Record
Temperature  
Mean Temperature 52 °F 45 °F  
Max Temperature 64 °F 57 °F 67 °F (1998)
Min Temperature 39 °F 33 °F 28 °F (2006)
Degree Days  
Heating Degree Days 14    
Cooling Degree Days 0    
Growing Degree Days 2 (Base 50)    
Moisture  
Dew Point 40 °F    
Average Humidity 67    
Maximum Humidity 89    
Minimum Humidity 36    
Precipitation  
Precipitation 0.00 in 0.02 in 0.14 in (2014)
Month to date precipitation 0.04  
Year to date precipitation 5.33  
Sea Level Pressure  
Sea Level Pressure 30.09 in    
Wind  
Wind Speed 3 mph (ENE)    
Max Wind Speed 9 mph    
Max Gust Speed -    
Visibility 10 miles    
Events      
T = Trace of Precipitation, MM = Missing Value Source: NWS Daily Summary

Daily Weather History Graph

Daily Weather History Graph

Search for Another Location

Airport or City:

Trip Planner

Search our weather history database for the weather conditions in past years. The results will help you decide how hot, cold, wet, or windy it might be!

Date:

Astronomy

Dec. 03, 2012 Rise Set
Actual Time 6:40 AM PST 4:28 PM PST
Civil Twilight 6:11 AM PST 4:56 PM PST
Nautical Twilight 5:39 AM PST 5:28 PM PST
Astronomical Twilight 5:08 AM PST 5:59 PM PST
Moon 9:14 PM PST (12/3) 10:09 AM PST (12/3)
Length of Visible Light 10h 45m
Length of Day
9h 48m
Waning Gibbous, 77% of the Moon is Illuminated
Dec 3
Waning Gibbous
Dec 6
Last Quarter
Dec 13
New
Dec 19
First Quarter
Dec 28
Full

Hourly Weather History & Observations

Time (PST) Temp. Windchill Dew Point Humidity Pressure Visibility Wind Dir Wind Speed Gust Speed Precip Events Conditions
12:52 AM 46.9 °F - 39.9 °F 77% 29.95 in 10.0 mi NNE 5.8 mph - N/A   Clear
1:52 AM 44.1 °F 42.5 °F 39.0 °F 82% 29.98 in 10.0 mi NE 3.5 mph - N/A   Clear
2:52 AM 43.0 °F - 37.9 °F 82% 29.99 in 10.0 mi Calm Calm - N/A   Clear
3:52 AM 43.0 °F 39.5 °F 37.9 °F 82% 29.99 in 10.0 mi SE 5.8 mph - N/A   Clear
4:52 AM 42.1 °F - 37.9 °F 85% 30.01 in 10.0 mi Calm Calm - N/A   Clear
6:52 AM 41.0 °F 38.0 °F 37.9 °F 89% 30.06 in 10.0 mi East 4.6 mph - N/A   Clear
7:52 AM 46.0 °F - 39.9 °F 79% 30.07 in 10.0 mi Calm Calm - N/A   Clear
8:52 AM 51.1 °F - 42.1 °F 71% 30.09 in 10.0 mi Calm Calm - N/A   Clear
9:52 AM 57.0 °F - 43.0 °F 59% 30.09 in 10.0 mi Calm Calm - N/A   Clear
10:52 AM 60.1 °F - 43.0 °F 53% 30.08 in 10.0 mi Variable 4.6 mph - N/A   Clear
11:52 AM 61.0 °F - 43.0 °F 52% 30.08 in 10.0 mi Calm Calm - N/A   Mostly Cloudy
12:52 PM 63.0 °F - 43.0 °F 48% 30.07 in 10.0 mi SW 9.2 mph - N/A   Partly Cloudy
1:52 PM 62.1 °F - 43.0 °F 50% 30.06 in 10.0 mi WSW 4.6 mph - N/A   Clear
2:52 PM 62.1 °F - 42.1 °F 48% 30.07 in 10.0 mi NNW 4.6 mph - N/A   Mostly Cloudy
3:52 PM 62.1 °F - 42.1 °F 48% 30.09 in 10.0 mi NNW 5.8 mph - N/A   Scattered Clouds
4:52 PM 57.9 °F - 41.0 °F 53% 30.11 in 10.0 mi Calm Calm - N/A   Clear
5:52 PM 52.0 °F - 39.0 °F 61% 30.13 in 10.0 mi Calm Calm - N/A   Clear
6:52 PM 48.9 °F - 39.0 °F 69% 30.16 in 10.0 mi ESE 5.8 mph - N/A   Clear
7:52 PM 48.0 °F - 39.9 °F 74% 30.17 in 10.0 mi East 4.6 mph - N/A   Clear
8:52 PM 46.0 °F - 39.0 °F 76% 30.17 in 10.0 mi Calm Calm - N/A   Clear
9:52 PM 45.0 °F 43.5 °F 39.0 °F 80% 30.18 in 10.0 mi ENE 3.5 mph - N/A   Clear
10:52 PM 45.0 °F - 37.9 °F 76% 30.18 in 10.0 mi Calm Calm - N/A   Clear
11:52 PM 46.0 °F 44.8 °F 39.0 °F 76% 30.18 in 10.0 mi Variable 3.5 mph - N/A   Clear